This is the latest recevied weather packets stored in our database for station/object TVARMINN. If no packets are shown the sender has not sent any weather packets the latest 10 day(s).
| Time | Temp. | Humidity | Pressure | Rain* | Wind** | Luminosity | Snow |
|---|---|---|---|---|---|---|---|
| 1777921637 | 5° C | 99% | 1003.6 hPa | 0 mm | - | - | - |
| 1777919237 | 5.56° C | 94% | 1003.6 hPa | 0 mm | - | - | - |
| 1777918037 | 5.56° C | 93% | 1003.4 hPa | 0 mm | - | - | - |
| 1777916837 | 5.56° C | 93% | 1003.4 hPa | 0 mm | - | - | - |
| 1777915636 | 5.56° C | 91% | 1003.3 hPa | 0 mm | - | - | - |
| 1777914437 | 6.11° C | 91% | 1003.3 hPa | 0 mm | - | - | - |
| 1777913236 | 6.67° C | 89% | 1003.4 hPa | 0 mm | - | - | - |
| 1777912036 | 6.67° C | 88% | 1003.4 hPa | 0 mm | - | - | - |
| 1777910836 | 6.67° C | 87% | 1003.2 hPa | 0 mm | - | - | - |
| 1777909635 | 6.67° C | 86% | 1003.1 hPa | 0 mm | - | - | - |
| 1777908437 | 7.78° C | 84% | 1003 hPa | 0 mm | - | - | - |
| 1777907236 | 8.33° C | 84% | 1002.9 hPa | 0 mm | - | - | - |
| 1777904836 | 8.33° C | 83% | 1003.1 hPa | 0 mm | - | - | - |
| 1777903636 | 8.89° C | 84% | 1003 hPa | 0 mm | - | - | - |
| 1777902436 | 8.89° C | 84% | 1002.8 hPa | 0 mm | - | - | - |
| 1777901236 | 8.33° C | 86% | 1002.8 hPa | 0 mm | - | - | - |
| 1777900035 | 8.33° C | 91% | 1003 hPa | 0 mm | - | - | - |
| 1777898836 | 8.33° C | 93% | 1002.9 hPa | 0 mm | - | - | - |
| 1777897635 | 7.78° C | 95% | 1002.9 hPa | 0 mm | - | - | - |
| 1777896436 | 7.22° C | 95% | 1003.1 hPa | 0 mm | - | - | - |
| 1777895236 | 7.22° C | 94% | 1003 hPa | 0.51 mm | - | - | - |
| 1777894035 | 6.67° C | 95% | 1003 hPa | 0.51 mm | - | - | - |
| 1777892835 | 6.67° C | 95% | 1003.1 hPa | 0.51 mm | - | - | - |
| 1777890435 | 6.11° C | 92% | 1003.5 hPa | 1.52 mm | - | - | - |
| 1777889235 | 6.67° C | 93% | 1003.7 hPa | 1.52 mm | - | - | - |
* Rain latest hour (hover to see other rain measurements)
** Current wind speed in m/s (hover to see current wind gust speed)